GFSGBSN_850_dewp_273.txt.gz
Dewpoint
8 0 5 4 3 3 3 3 2 2 1 1 1 0 0 -0 -1 -1 -1 -2 -2 -3 -4 -5 -6 -7 -9 -7 -8 -8 -10 -8 -4 -4 -5 -5 -7 -8 -9 -11 -10 -8 -7 -6 -6 -6 -6
10 10 0 5 4 3 2 2 1 2 1 1 1 1 1 0 0 -1 -1 -2 -3 -3 -4 -6 -7 -8 -6 -8 -8 -10 -10 -4 -3 -4 -4 -5 -7 -8 -9 -10 -10 -6 -10 -10 -8 -7 -7
9 10 10 1 5 4 3 1 1 1 1 1 1 1 2 1 0 -0 -1 -2 -3 -4 -5 -7 -9 -13 -7 -9 -8 -6 -9 -4 -4 -3 -5 -4 -5 -6 -7 -9 -7 -10 -9 -8 -7 -5 -4
7 9 9 5 5 5 5 3 2 2 2 2 2 2 3 2 1 -1 -2 -3 -4 -5 -7 -8 -11 -12 -7 -12 -12 -11 -9 -5 -4 -3 -4 -3 -4 -5 -6 -7 -10 -9 -9 -6 -4 -6 -3
5 7 9 10 3 5 5 5 4 4 4 4 3 3 3 2 0 -4 -7 -5 -6 -6 -7 -6 -4 0 -7 -12 -11 -5 -5 -6 -4 -3 -2 -3 -2 -4 -5 -7 -8 -5 -6 -6 -3 -5 -5
3 5 7 8 7 2 4 3 4 4 4 4 4 4 3 2 -3 -9 -6 -7 -7 -6 -5 -3 -3 -1 -5 -12 -4 -3 -4 -6 -6 -5 -3 -3 -4 -5 -6 -8 -9 -6 -6 -5 -5 -3 -2
3 3 6 7 9 5 3 3 5 5 5 5 4 4 4 2 -6 -1 -5 1 2 3 5 -0 1 -3 -5 -4 -4 -5 -3 -4 -4 -5 -5 -4 -5 -6 -9 -5 -3 -6 -6 -6 -5 -3 -1
1 3 4 6 7 8 3 4 5 7 6 5 5 5 4 1 -4 1 0 3 7 8 3 0 0 1 1 2 -1 -6 -4 -5 -4 -4 -7 -5 -8 -11 -5 -4 -4 -5 -4 -5 -3 -2 -1
-3 2 4 5 7 8 6 4 3 4 6 5 6 5 3 2 -2 3 6 6 5 5 4 -2 -3 -1 -2 2 1 -7 -4 -5 -5 -5 -6 -4 -7 -7 -3 -3 -3 -3 -3 -4 -2 -2 -3
-3 1 3 5 6 7 7 5 4 5 6 5 5 5 4 4 2 6 6 7 3 0 2 -4 1 1 2 2 1 -1 -6 -5 -5 -5 -6 -5 -8 -5 -3 -4 -3 -2 -4 -3 -2 -1 -0
-2 -2 3 4 5 7 7 6 6 6 5 4 5 6 5 3 8 6 8 4 3 6 4 -5 -2 2 0 0 -3 -1 -2 -4 -4 -4 -5 -4 -6 -3 -3 -4 -4 -2 -3 -2 -3 -1 -1
-2 -1 2 4 5 6 7 8 9 6 5 4 4 7 6 3 6 7 6 3 5 5 4 -2 -1 1 -1 -0 -3 -2 -1 -2 -4 -5 -4 -5 -7 -6 -6 -5 -4 -3 -1 -2 -3 -2 2
-2 -1 2 3 5 6 7 7 8 9 4 5 6 7 6 6 5 4 5 6 5 7 -2 -1 -0 -1 -0 -2 -3 -1 -2 -1 -1 -1 -1 -3 -5 -5 -3 -3 -3 -1 -1 2 3 3 3
-1 -1 1 2 3 6 7 6 7 6 4 5 5 8 5 4 4 7 6 6 9 2 1 -1 0 -0 2 -2 -1 -1 -1 -1 -3 -3 -2 0 1 -5 -3 -3 -1 -2 -2 2 6 5 3
-1 0 1 3 2 5 6 6 7 8 7 8 8 7 6 3 2 4 6 8 8 5 1 1 1 3 3 -2 1 1 0 -1 -4 -4 -1 -2 -2 -6 -6 -6 -6 -2 0 -2 2 3 5
-1 0 1 1 2 3 5 6 6 6 7 8 8 7 7 3 3 6 7 8 7 4 2 1 4 2 3 2 2 1 1 -2 -3 -5 -4 -0 1 -0 -1 -2 -3 0 -1 3 3 6 6
1 0 1 1 2 4 5 6 5 5 6 8 8 7 7 5 5 8 9 8 6 3 3 4 4 6 4 3 2 2 1 2 2 -0 -1 1 4 3 1 1 1 1 2 1 2 2 6
0 0 1 1 2 3 5 6 6 5 6 8 7 7 7 7 6 8 8 7 5 4 3 4 5 4 4 4 4 2 2 4 3 3 1 1 2 6 2 2 2 -1 1 1 6 6 4
-0 0 0 1 2 2 4 5 5 7 7 7 7 7 7 6 7 7 7 6 5 5 4 4 5 4 4 5 6 5 5 4 4 4 4 3 3 8 7 5 1 2 2 2 2 4 6
-1 -0 -0 0 1 2 4 5 5 6 6 7 7 7 7 6 5 5 7 7 7 4 4 3 3 3 5 6 5 6 6 5 4 4 2 4 4 4 7 5 3 4 4 2 3 8 7
-1 -0 -1 -1 1 2 2 5 4 6 6 7 6 7 6 7 6 7 7 7 7 6 4 3 4 3 3 5 5 6 5 5 4 2 4 4 5 4 5 4 3 4 3 3 3 3 6
-1 -0 -0 -0 -0 1 2 4 4 5 6 7 7 6 7 7 6 6 7 7 7 5 5 5 4 3 2 3 2 4 4 5 5 4 4 4 7 5 9 3 3 3 3 3 3 3 2
-1 0 0 0 1 1 1 2 5 5 6 6 7 6 6 6 7 8 8 7 7 5 4 3 3 4 4 0 -0 3 3 4 4 5 5 5 6 6 8 5 4 6 4 3 2 1 2
-2 -0 -0 0 0 1 1 3 4 4 6 6 6 6 7 8 8 8 7 6 6 5 6 4 4 5 5 3 5 5 4 3 4 4 4 5 5 6 9 6 10 1 0 0 1 1 0
-2 -1 -1 -0 0 1 1 2 2 5 4 6 6 6 6 7 7 7 6 6 6 6 6 6 6 6 5 5 5 6 6 5 4 3 4 3 4 8 8 6 1 0 0 1 2 1 -1
-3 -3 -1 0 1 1 1 1 2 3 5 6 6 6 5 6 6 6 7 6 7 8 7 6 7 6 5 5 6 7 8 5 5 6 4 4 5 7 8 7 5 1 -0 -2 -2 2 -2
-7 -4 -2 -0 0 1 1 0 1 2 5 5 5 5 5 5 5 7 7 7 6 7 7 6 6 6 6 8 8 6 5 1 5 6 7 7 8 10 8 10 6 -1 -2 -1 3 3 -2
-7 -5 -2 -1 0 1 1 0 1 2 3 5 5 5 4 5 6 6 7 6 6 6 7 6 5 5 7 8 7 6 4 2 2 2 4 6 7 8 7 11 9 -0 -1 2 1 1 -1
-7 -7 -2 -2 -0 0 0 0 1 1 3 5 5 5 5 5 5 5 6 7 5 5 5 5 5 5 4 5 5 4 4 3 3 5 1 6 4 6 5 5 2 0 0 -0 -0 0 -2

GFSGBSN_850_dewp_276.txt.gz
Dewpoint
9 6 1 3 3 3 3 4 4 3 2 1 1 0 -0 -1 -1 -1 -1 -2 -2 -3 -4 -5 -6 -7 -10 -6 -7 -6 -10 -11 -5 -5 -5 -6 -6 -8 -10 -12 -13 -12 -9 -8 -8 -7 -8
9 9 9 3 2 4 3 2 3 3 3 2 2 1 0 -0 -0 -1 -1 -1 -2 -3 -4 -5 -6 -7 -5 -7 -7 -4 -9 -10 -4 -5 -5 -5 -7 -8 -9 -9 -10 -11 -8 -13 -11 -9 -8
8 9 9 9 7 2 5 4 3 2 2 2 1 1 0 0 0 -0 -1 -1 -2 -3 -4 -5 -6 -8 -3 -6 -9 -8 -6 -7 -5 -5 -5 -5 -5 -7 -8 -11 -10 -10 -11 -12 -10 -7 -6
3 6 8 9 9 9 4 6 5 3 2 1 2 1 1 1 1 0 -0 -1 -2 -3 -4 -5 -7 -7 -2 -7 -10 -11 -11 -8 -5 -5 -4 -4 -4 -6 -8 -9 -9 -11 -10 -7 -7 -6 -5
1 2 5 7 9 9 8 6 6 5 3 3 2 2 2 2 2 1 -0 -1 -3 -4 -5 -6 -6 3 -0 -8 -11 -11 -7 -7 -7 -4 -3 -4 -5 -4 -6 -6 -7 -8 -5 -6 -3 -5 -6
-3 -0 2 4 6 8 9 5 7 6 6 5 4 4 4 4 3 0 -4 -3 -4 -4 -4 -1 -6 -1 -5 -8 -7 -4 -5 -5 -7 -6 -5 -4 -4 -4 -6 -6 -4 -6 -4 -7 -5 -4 -5
-6 -3 -0 2 4 7 8 9 5 6 5 5 5 5 4 3 3 -3 -3 -5 1 5 3 2 -1 -0 -2 -6 -3 -7 -7 -4 -6 -5 -4 -5 -3 -3 -7 -3 -7 -4 -6 -7 -7 -3 -3
-8 -6 -4 -2 2 4 7 8 5 4 5 5 6 6 5 4 3 -4 -3 4 4 7 5 2 0 -1 -1 -1 -0 -3 -6 -4 -5 -4 -6 -5 -2 -5 -12 -4 -4 -8 -7 -7 -4 -4 -4
-7 -7 -6 -5 -2 2 4 7 8 6 5 6 7 7 6 5 2 -4 1 6 6 5 2 -1 -3 -4 -5 -4 -3 -2 -8 -5 -6 -5 -5 -5 -7 -8 -6 -5 -5 -5 -4 -5 -4 -3 -2
-9 -8 -8 -6 -6 -1 3 5 8 8 5 6 7 7 6 5 3 -3 6 5 6 2 5 -3 -6 -4 -5 -4 -3 -2 -4 -7 -7 -7 -7 -7 -9 -8 -5 -5 -6 -3 -6 -5 -3 -2 0
-7 -7 -7 -7 -6 -5 1 3 7 8 6 4 5 7 6 5 4 5 3 7 5 7 5 -5 -2 -4 -2 -1 -5 -4 -4 -6 -5 -6 -6 -5 -7 -6 -5 -6 -7 -5 -3 -4 -3 -2 -2
-6 -6 -6 -6 -6 -4 -1 2 5 7 8 5 5 7 6 7 3 6 8 6 5 7 6 -2 -0 0 -1 -0 -1 -4 -2 -4 -6 -5 -5 -5 -8 -8 -6 -7 -7 -6 -2 -1 -2 -2 1
-5 -5 -4 -4 -5 -2 -1 2 4 6 7 5 6 8 6 6 4 7 9 6 6 6 -1 -1 -1 -1 -1 -2 -2 -3 -2 -1 -1 -1 -1 -4 -5 -6 -6 -5 -6 -4 -0 3 2 3 2
-4 -4 -3 -4 -3 -2 -0 1 5 6 7 7 7 8 6 7 6 6 6 6 7 3 2 -2 -1 -2 -0 -0 -1 -2 -3 -0 -2 -2 -3 -1 -1 -5 -6 -4 -4 -2 -0 3 4 6 7
-4 -3 -3 -3 -2 -1 1 1 2 6 6 7 8 8 6 7 7 7 6 8 6 4 1 0 -0 1 1 1 1 -2 -2 -0 -2 -2 0 -1 -2 -5 -5 -5 -3 -1 1 -2 2 3 7
-4 -3 -3 -2 -1 -1 0 2 3 5 6 7 9 8 7 7 7 7 7 6 4 2 2 1 5 2 2 2 2 0 1 -1 -1 -3 -4 -2 1 -3 -5 -5 -5 -3 -3 2 3 7 7
-3 -3 -2 -1 -1 0 1 1 3 5 6 7 7 7 6 8 6 8 7 6 3 4 3 4 4 5 4 4 2 1 2 -0 -2 -3 -5 -4 4 2 -2 -1 -1 -4 -2 3 1 4 9
-3 -2 -2 -1 0 1 1 1 2 4 5 7 7 8 6 6 7 6 6 4 3 4 4 4 4 5 4 5 5 5 2 3 -0 1 -0 -1 5 8 3 -1 -3 -2 1 2 11 7 8
-3 -1 -1 -1 0 1 1 1 2 4 5 6 7 7 8 7 7 7 6 6 6 5 4 4 4 4 3 7 9 7 3 4 4 4 3 1 7 10 10 4 2 3 0 1 3 5 8
-3 -2 -2 -1 0 0 1 1 2 4 6 5 7 7 8 6 6 6 7 7 7 6 4 3 4 3 6 9 5 7 8 5 3 3 3 5 3 8 12 9 5 4 2 2 5 11 8
-4 -3 -2 -1 0 0 -0 2 2 3 6 6 6 7 6 7 7 7 6 6 7 6 5 4 5 5 5 7 8 7 8 6 4 2 4 4 5 7 7 5 4 5 4 5 4 4 7
-4 -3 -2 -1 -0 0 -0 1 2 3 5 6 7 6 6 6 6 7 6 7 7 6 5 7 6 5 5 6 5 5 7 10 5 3 4 4 8 7 10 4 3 5 4 6 3 3 2
-3 -2 -2 -1 0 -0 -0 1 1 3 3 6 6 6 6 6 6 7 7 6 7 5 5 5 5 5 5 3 3 4 5 5 6 5 6 6 7 8 9 4 3 6 4 2 1 0 1
-4 -3 -2 -1 0 0 1 0 1 1 3 6 6 6 6 7 7 7 5 5 6 6 7 5 5 6 4 3 4 4 4 4 4 4 4 7 6 9 10 6 11 4 0 -0 0 0 -0
-9 -4 -3 -2 -1 -1 0 1 1 1 2 5 6 6 6 7 7 6 5 6 5 6 7 5 4 4 3 3 6 5 5 5 5 4 5 5 7 10 11 9 5 1 0 0 1 1 -1
-8 -9 -5 -3 -1 -1 0 1 0 0 1 4 6 6 6 6 7 5 6 6 8 8 8 8 7 5 5 6 7 8 8 5 5 4 2 4 5 10 10 9 7 1 -1 -2 -2 2 -3
-12 -7 -8 -4 -2 -2 0 1 1 -1 1 3 4 5 6 6 6 6 7 7 7 7 8 8 8 8 5 8 9 8 7 2 5 6 7 8 9 11 10 11 8 -0 -2 -2 4 5 -1
-15 -10 -6 -7 -2 -2 0 0 1 -0 0 2 4 6 5 5 6 6 7 8 7 7 7 7 7 6 8 8 8 7 6 4 3 3 5 8 9 9 9 10 9 0 -1 2 3 -0 -1
-11 -14 -6 -7 -4 -2 -0 0 0 1 -0 1 4 5 5 5 5 5 6 7 8 7 6 7 6 6 7 7 7 5 5 4 4 7 3 7 5 8 6 7 2 1 1 -1 1 1 0

GFSGBSN_850_dewp_279.txt.gz
Dewpoint
10 9 6 4 4 4 4 4 3 3 3 2 2 1 1 0 -0 -0 -1 -2 -2 -3 -4 -4 -5 -6 -9 -6 -6 -5 -7 -9 -10 -9 -5 -6 -6 -8 -7 -10 -10 -11 -11 -9 -10 -7 9
8 9 9 6 3 3 5 4 3 3 3 3 2 2 1 1 0 0 -0 -1 -2 -3 -3 -4 -5 -6 -7 -5 -7 -7 -7 -11 -6 -5 -5 -6 -5 -6 -8 -7 -9 -11 -10 -11 -13 -9 7
6 7 9 9 7 6 3 4 5 4 3 2 1 1 1 0 -0 -0 -0 -1 -2 -2 -3 -4 -5 -6 -6 -9 -10 -8 -9 -10 -10 -7 -5 -5 -4 -5 -5 -6 -9 -8 -8 -11 -11 -10 5
1 3 6 8 9 8 6 7 4 5 5 3 2 1 0 0 0 -0 -0 -1 -2 -3 -3 -4 -5 -5 -2 -9 -7 -9 -10 -11 -8 -5 -5 -4 -4 -5 -5 -8 -9 -8 -10 -8 -9 -5 7
-4 -0 0 4 7 8 8 8 6 4 5 5 4 3 2 1 1 2 1 -0 -2 -3 -4 -4 -5 2 -0 -3 -5 -9 -13 -12 -8 -8 -5 -4 -4 -5 -4 -3 -3 -6 -6 -5 -4 -5 -4
-9 -9 -5 -1 1 5 7 8 8 7 5 6 5 4 4 3 3 3 2 -0 -1 -3 -2 0 -2 -0 -7 -9 -7 -6 -6 -5 -6 -7 -5 -4 -4 -3 -3 -4 -2 -4 -3 -4 -3 -4 9
-11 -10 -10 -7 -4 -0 3 6 8 8 7 6 6 6 5 4 4 4 3 1 -0 4 6 2 2 -4 -5 -3 -1 -3 -7 -8 -6 -6 -4 -5 -1 -1 -3 -4 -3 -5 -5 -7 -3 -3 8
-11 -12 -11 -10 -9 -6 -1 2 5 8 9 5 6 6 5 5 5 4 3 -1 1 6 6 5 5 5 4 0 -1 -1 -5 -6 -4 -3 -4 -3 -2 -3 -4 -4 -4 -4 -5 -5 -4 -4 -4
-11 -13 -13 -12 -11 -10 -7 -2 2 5 7 8 5 6 7 6 6 5 2 -3 6 6 6 2 -1 -1 -0 -1 -2 -2 -3 -5 -4 -2 -2 -2 -4 -6 -5 -4 -4 -5 -4 -3 -3 -2 -3
-8 -9 -10 -12 -11 -11 -10 -8 -3 2 5 8 6 5 7 8 7 4 1 -3 5 5 10 3 -3 -2 -2 -3 -4 -4 -4 -3 -5 -3 -4 -4 -5 -5 -6 -3 -5 -3 -5 -4 -4 -0 2
-9 -8 -7 -8 -9 -10 -11 -11 -9 -3 2 6 8 7 7 9 7 5 1 1 6 5 9 -1 -2 -5 -5 -3 -4 -4 -5 -4 -2 -4 -5 -4 -5 -5 -5 -4 -5 -4 -3 -1 -2 -1 -1
-6 -7 -8 -8 -7 -8 -9 -10 -10 -7 -2 3 7 8 6 8 8 3 7 7 6 8 10 2 -0 -2 -1 -3 -5 -3 -1 -3 -3 -4 -6 -5 -7 -6 -6 -6 -6 -6 -2 -1 -0 -0 3
-6 -7 -8 -8 -8 -8 -8 -8 -9 -8 -6 -1 4 7 7 8 7 2 9 8 9 9 0 -0 1 0 0 1 0 -0 0 -1 -0 -1 -2 -3 -4 -5 -6 -5 -5 -5 -1 4 5 4 4
-6 -7 -8 -8 -8 -7 -7 -7 -7 -8 -8 -4 2 6 7 8 6 5 8 9 9 5 2 -1 -1 -0 1 0 -0 -1 -1 -0 -2 -1 -0 0 1 -3 -5 -4 -2 -3 0 6 6 6 8
-6 -7 -7 -7 -6 -7 -6 -5 -5 -4 -4 -3 -0 4 6 7 7 6 8 10 7 4 1 2 1 2 2 0 1 0 0 -1 -2 -2 1 2 1 -4 -5 -5 -5 -2 1 -1 3 3 10
-6 -6 -6 -5 -4 -4 -4 -4 -4 -3 -3 -1 2 3 5 7 8 8 9 9 6 2 1 2 4 3 5 2 2 2 2 -1 -1 -2 -2 0 3 -1 -2 -5 -5 -2 -1 3 4 6 8
-6 -5 -5 -5 -4 -4 -3 -3 -2 -2 -2 1 3 3 4 6 8 8 8 7 5 1 1 4 5 6 5 6 2 2 3 1 1 -1 -1 -1 3 5 1 -2 -1 -1 -0 -1 3 6 9
-6 -6 -6 -5 -4 -4 -3 -2 -0 -0 0 1 2 4 4 7 8 7 8 6 3 3 3 4 5 5 6 6 7 7 5 4 2 3 -2 1 7 8 6 4 -2 -1 -2 0 9 7 9
-5 -5 -5 -5 -3 -3 -2 -2 -1 -0 1 1 2 4 5 8 8 8 7 7 4 3 3 3 5 5 5 7 8 8 7 5 4 4 4 2 9 10 9 6 3 1 2 -1 5 8 8
-5 -5 -5 -4 -3 -3 -2 -1 -0 0 1 2 2 6 7 7 7 6 7 7 6 4 4 4 5 5 6 7 8 8 9 5 4 4 4 4 8 9 11 9 9 8 4 2 7 8 9
-5 -5 -5 -4 -3 -3 -2 -1 1 1 1 1 1 5 4 7 7 5 5 5 6 6 5 4 5 5 5 9 10 9 8 9 5 3 3 6 7 9 9 8 9 8 7 7 8 7 8
-5 -5 -4 -4 -4 -3 -1 -1 -1 1 0 1 1 4 4 5 6 5 6 6 6 5 6 7 6 5 5 6 8 11 10 8 7 4 6 5 8 9 8 8 8 7 7 6 6 6 6
-8 -5 -4 -4 -3 -2 -1 -1 -1 0 0 0 1 3 4 5 6 6 6 6 7 5 5 5 6 6 6 5 5 5 6 6 7 6 7 7 8 9 11 8 8 9 6 5 7 6 3
-7 -8 -5 -3 -3 -2 -1 0 -0 1 0 -0 1 2 5 5 6 6 5 6 6 5 5 5 5 6 5 4 3 4 5 6 6 7 6 8 7 8 8 10 11 6 3 2 3 3 0
-10 -8 -8 -7 -3 -3 -1 -1 -1 0 0 0 1 1 5 5 5 6 6 7 6 5 5 5 5 5 5 4 6 7 6 5 7 8 6 7 8 8 8 9 7 5 3 1 1 1 -1
-12 -11 -10 -7 -7 -4 -3 -2 -1 0 0 0 0 0 2 5 6 5 7 7 7 7 6 8 7 5 5 7 7 7 7 6 7 6 6 6 7 7 7 8 9 6 2 -1 -1 3 -1
-13 -14 -13 -10 -7 -7 -4 -2 -1 1 0 0 0 1 1 6 4 5 6 7 6 7 7 8 8 8 7 8 7 6 6 4 7 7 8 8 7 8 6 6 7 3 -1 -3 1 1 0
-9 -10 -12 -14 -9 -7 -5 -3 -1 0 1 1 -0 -1 1 6 6 6 6 5 6 6 7 8 8 7 7 7 7 6 7 5 5 5 7 8 7 7 7 7 8 3 -1 1 2 -1 -2
-10 -10 -8 -10 -13 -6 -6 -2 -0 0 0 1 0 1 2 5 5 6 6 6 6 6 6 8 7 7 7 7 7 6 6 5 4 7 4 7 6 7 7 6 4 2 0 1 0 -0 -1

GFSGBSN_850_dewp_285.txt.gz
Dewpoint
8 9 9 9 6 4 3 4 3 3 3 2 2 2 2 1 1 0 -0 -1 -2 -3 -3 -4 -5 -6 -10 -11 -15 -9 -7 -8 -10 -11 -9 -6 -5 -5 -5 -7 -7 -10 -10 -9 4 8 11
7 7 8 8 9 8 6 4 3 3 3 3 2 1 1 0 -0 -1 -1 -1 -2 -3 -3 -3 -4 -5 -6 -7 -8 -8 -6 -9 -9 -10 -9 -6 -4 -4 -5 -5 -6 -8 -9 -8 10 11 12
2 4 6 7 7 8 8 8 6 2 2 3 2 1 0 -0 -1 -2 -2 -3 -3 -3 -3 -3 -3 -4 -5 -9 -10 -11 -10 -11 -10 -10 -10 -8 -5 -4 -4 -5 -7 -7 -7 -9 3 10 11
-2 0 2 3 5 6 7 8 8 8 3 2 2 3 2 1 -0 -1 -2 -3 -3 -3 -2 -0 -1 -4 -5 -10 -10 -10 -10 -10 -9 -9 -11 -6 -6 -4 -4 -6 -6 -4 -8 -7 -9 9 11
-9 -6 -3 -0 1 3 5 6 8 8 8 5 1 2 2 2 1 -0 -1 -2 -2 -2 -1 -1 1 -2 -3 -6 -6 -5 -7 -7 -8 -10 -12 -9 -4 -4 -5 -3 -4 -4 -4 -6 -7 8 9
-8 -10 -10 -8 -4 -2 -1 2 4 7 8 8 8 3 1 2 2 0 -0 -2 -3 2 3 3 3 1 -1 -4 -5 -4 -4 -6 -9 -5 -6 -5 -4 -4 -3 -4 -4 -6 -3 -4 -4 -5 9
-4 -9 -10 -11 -11 -10 -8 -3 -1 2 4 6 7 7 6 3 3 2 1 -3 2 4 4 3 4 5 3 -1 -3 -3 -1 -2 -5 -5 -5 -4 -2 -1 -3 -3 -3 -3 -3 -3 -5 -8 8
-1 -4 -11 -12 -12 -12 -12 -11 -7 -4 -1 2 5 6 8 7 3 2 2 -0 4 6 4 3 4 4 3 2 4 -4 -2 1 -4 -4 -5 -4 -1 -3 -3 -2 -2 -2 -2 -2 -5 3 8
-2 -1 -5 -9 -12 -13 -13 -12 -11 -10 -8 -3 -0 4 6 8 8 5 2 3 5 1 6 6 4 5 4 3 4 3 1 -0 -2 -3 -3 -3 -4 -4 -4 -3 -2 -2 -2 -3 -5 2 11
-2 -2 -2 -6 -10 -11 -12 -13 -13 -13 -12 -10 -6 -1 4 6 7 6 3 4 3 4 6 4 2 0 2 2 0 0 2 -0 -2 -2 -3 -2 -3 -3 -3 -2 -3 -2 -4 -4 -4 -2 0
-3 -2 -2 -1 -5 -9 -10 -10 -11 -11 -12 -12 -10 -5 1 5 7 5 4 3 6 5 9 2 0 -3 -2 -1 -3 -4 0 1 0 -2 -4 -2 -5 -3 -2 -3 -4 -3 -4 -4 -4 -1 -0
-3 -3 -2 -2 -2 -3 -7 -9 -9 -10 -11 -11 -12 -10 -2 6 7 6 4 5 6 5 8 4 1 -2 -1 -2 -3 -4 -2 -1 -2 -2 -2 -3 -6 -6 -5 -6 -6 -6 -4 -3 -0 0 3
-3 -3 -4 -3 -4 -6 -7 -6 -7 -9 -9 -10 -11 -11 -9 1 6 7 4 6 8 8 3 3 1 -1 -2 -1 -2 -4 -1 -2 -1 1 1 -1 -1 -3 -4 -3 -4 -5 -3 1 2 2 1
-4 -4 -8 -7 -7 -7 -7 -7 -6 -5 -6 -7 -8 -10 -10 -8 3 8 7 7 9 5 5 1 1 1 0 0 -1 -2 -3 -1 -1 -1 0 2 3 -2 -4 -3 -2 -3 -2 3 3 3 1
-4 -6 -7 -8 -7 -7 -8 -8 -7 -5 -4 -4 -5 -6 -9 -11 -5 4 7 9 6 5 4 4 3 4 3 1 0 1 1 -1 -2 -1 2 2 1 -3 -5 -4 -4 -2 -1 -2 1 3 8
-4 -3 -6 -8 -7 -7 -7 -7 -7 -6 -5 -2 -2 -3 -6 -11 -11 -1 6 6 5 3 3 3 6 4 4 2 2 2 2 0 0 -1 -2 1 3 -1 -3 -3 -3 -3 -3 0 4 4 4
-5 -5 -5 -7 -7 -7 -7 -6 -6 -5 -2 -1 -1 -3 -2 -8 -6 1 5 5 4 3 3 5 4 4 4 3 2 3 2 1 0 -1 -2 -0 2 1 0 0 0 -0 -1 0 0 4 3
-5 -5 -5 -6 -7 -6 -7 -6 -5 -4 -2 -0 -0 -0 0 -2 3 2 2 3 3 4 3 5 4 5 4 3 6 3 3 2 0 -1 0 -0 2 3 1 0 -1 -0 0 -1 3 3 7
-5 -5 -5 -6 -7 -6 -7 -6 -5 -3 -1 -1 -0 -1 2 2 0 0 -0 -1 0 2 3 5 5 4 4 6 7 7 6 4 2 3 3 2 4 5 5 4 4 4 1 -1 3 3 4
-4 -4 -5 -6 -6 -6 -6 -5 -4 -3 -2 -1 -1 -1 0 0 -0 -1 -1 -0 -1 -1 3 3 5 4 5 5 6 6 8 6 4 4 4 2 6 5 6 4 4 7 7 5 3 5 3
-4 -4 -5 -6 -5 -5 -5 -5 -3 -2 -2 -0 0 0 -1 0 1 1 0 -0 0 -0 -3 1 4 5 5 6 5 7 7 8 6 4 4 5 7 8 5 4 7 6 7 7 7 5 6
-4 -4 -4 -5 -5 -5 -5 -5 -3 -3 -2 -0 -0 0 1 -0 -1 0 1 2 2 0 -0 -0 4 4 5 5 4 5 7 8 7 5 5 6 7 8 6 8 8 9 8 7 7 7 7
-3 -3 -4 -4 -4 -5 -5 -5 -4 -3 -1 0 0 0 0 -1 -0 0 -0 -0 -0 -0 -0 -0 -1 4 5 6 3 2 3 5 6 6 6 8 8 8 8 8 9 10 8 7 7 6 7
-3 -3 -4 -5 -6 -5 -5 -4 -4 -3 -2 -1 -0 -0 0 0 0 -1 -2 -2 -0 0 2 1 1 -0 1 3 3 3 4 4 7 8 6 8 8 8 9 9 11 6 6 5 6 6 5
-3 -3 -4 -6 -7 -7 -5 -4 -3 -3 -2 -0 -1 0 -0 0 -1 -2 -0 -0 -1 -1 1 2 0 0 1 4 6 6 6 6 6 6 8 8 8 9 10 10 7 6 6 6 6 6 4
-2 -2 -4 -7 -7 -8 -8 -6 -4 -3 -2 -0 -0 -0 0 -1 -0 -2 -2 -2 -0 0 0 1 1 1 3 6 7 8 9 7 9 8 8 9 8 9 7 10 11 6 4 3 2 7 2
-2 -3 -7 -9 -10 -10 -9 -8 -8 -5 -3 -2 -1 -1 -0 -1 -1 -2 -1 -1 -2 -0 2 3 4 5 4 7 7 8 8 6 8 8 10 10 9 10 9 9 6 4 2 1 7 6 -0
-3 -4 -9 -11 -12 -13 -12 -12 -10 -8 -7 -4 -3 -2 -1 -0 -0 -1 -1 0 -0 1 2 0 5 5 6 6 7 7 8 7 8 7 8 9 10 10 8 7 8 3 1 3 2 -0 -1
-4 -5 -8 -10 -9 -11 -14 -14 -14 -11 -7 -6 -3 -3 -2 -0 0 0 0 0 0 1 2 2 3 5 5 7 7 8 8 8 7 9 7 9 7 8 7 7 4 2 1 -1 -1 -1 -0

GFSGBSN_850_dewp_291.txt.gz
Dewpoint
7 7 8 8 9 9 9 8 6 3 2 1 1 1 -0 -1 -2 -3 -3 -2 -3 -4 -4 -5 -6 -8 -11 -10 -14 -11 -9 -9 -10 -12 -14 -11 -8 -5 -5 -6 -8 -9 -9 -9 2 11 12
4 5 6 7 7 8 8 8 8 8 6 3 1 1 -0 -1 -2 -3 -4 -6 -3 -4 -4 -4 -5 -5 -5 -6 -11 -9 -9 -8 -8 -11 -11 -8 -6 -6 -5 -5 -8 -7 -8 -8 6 11 11
-1 2 3 4 5 6 7 7 7 8 8 7 7 3 -0 -1 -2 -3 -4 -6 -5 -4 -4 -2 -1 1 -2 -6 -9 -9 -10 -12 -12 -11 -9 -8 -5 -6 -5 -6 -6 -6 -7 -7 9 11 12
-3 -7 -2 0 2 3 4 6 6 6 7 7 7 7 7 0 -4 -4 -5 -6 -6 -4 -3 -1 -2 1 1 -2 -5 -5 -8 -9 -10 -10 -9 -10 -10 -5 -5 -5 -7 -5 -6 -6 -0 11 12
-1 -1 -8 -8 -4 -1 0 1 3 4 6 6 7 6 6 7 7 2 -5 -6 -6 -4 -2 -1 1 2 1 -3 -5 -3 -3 -5 -8 -8 -8 -11 -8 -5 -5 -4 -7 -6 -8 -5 -6 8 12
-0 0 -0 -8 -10 -9 -6 -3 -2 -1 -0 3 5 6 5 6 6 7 6 1 -2 -1 1 0 3 1 -1 -2 -2 -2 -2 -2 -4 -7 -5 -6 -5 -3 -3 -5 -9 -9 -3 -2 -2 5 10
-2 -1 -1 -3 -9 -11 -11 -10 -9 -8 -4 -3 -2 0 4 3 3 4 6 1 -1 0 -1 -1 -4 -2 -5 -3 -3 -1 -1 -2 -2 -5 -3 -4 -3 -2 -3 -3 -5 -3 -1 -1 -3 -5 5
-4 -3 -5 -5 -5 -9 -12 -12 -13 -12 -12 -10 -6 -5 -4 -0 2 4 5 3 4 6 6 -1 -1 0 -1 1 3 -2 -2 0 -2 -4 -4 -3 -1 -3 -3 -3 -3 -2 -1 -2 -4 0 -0
-5 -3 -3 -5 -6 -6 -9 -12 -13 -13 -14 -13 -13 -11 -10 -8 -4 4 6 4 4 6 7 1 2 3 3 3 3 1 2 1 -1 -3 -3 -3 -5 -4 -3 -3 -2 -1 -1 -2 -3 -3 6
-4 -7 -3 -4 -5 -5 -7 -10 -12 -13 -13 -13 -14 -14 -13 -11 -8 1 6 4 5 7 3 0 2 1 2 3 2 -2 2 1 -1 1 -2 -1 -3 -4 -4 -3 -3 -1 -4 -3 -3 -2 -3
-3 -5 -7 -3 -5 -5 -6 -8 -10 -11 -12 -12 -13 -15 -15 -11 3 5 4 4 7 3 -12 -9 0 -0 1 1 -2 -1 2 2 0 -1 -1 0 -4 -2 -1 -2 -3 -3 -4 -3 -3 -2 -1
-5 -5 -4 -4 -3 -4 -3 -5 -8 -9 -10 -10 -12 -13 -14 -8 3 5 4 4 6 -3 -6 -1 1 -1 -0 -1 -2 -3 1 1 0 0 -2 -2 -4 -5 -4 -5 -4 -4 -3 -2 -1 -1 0
-4 -5 -5 -5 -3 -4 -4 -4 -7 -9 -9 -10 -11 -12 -12 -10 -4 5 5 5 5 2 -3 -5 1 -1 -1 -1 -2 -3 0 1 -0 1 1 -1 -0 -1 -4 -1 -3 -3 -2 0 0 2 -0
-4 -5 -6 -5 -6 -4 -7 -6 -7 -7 -8 -9 -11 -12 -12 -14 2 2 5 6 6 1 2 1 2 2 2 -0 -1 -2 -1 -0 -2 -2 0 1 1 -1 -3 -2 -2 -0 -1 1 2 0 -1
-4 -4 -5 -5 -5 -4 -7 -7 -7 -7 -7 -8 -9 -10 -13 -13 3 5 7 8 4 2 2 2 -0 1 2 1 1 1 -1 -1 -1 -1 0 2 2 -2 -3 -3 -2 -1 0 -2 0 0 1
-3 -3 -4 -5 -4 -4 -5 -6 -6 -7 -7 -7 -6 -8 -12 -12 -4 2 7 5 4 2 3 3 -1 -1 2 -0 -2 -1 1 -0 -1 -2 -2 0 2 -1 -3 -4 -3 -2 -3 0 2 3 3
-4 -4 -3 -4 -5 -4 -4 -5 -5 -6 -6 -5 -3 -8 -9 -11 -10 -1 5 5 3 2 2 4 5 4 5 4 2 2 1 -0 -1 -0 -1 0 2 1 -0 -0 -0 -0 -1 -0 -0 3 4
-4 -3 -5 -4 -4 -5 -4 -5 -4 -5 -5 -3 -1 -1 -6 -4 -2 1 3 2 -0 2 1 3 4 5 5 5 5 4 5 2 2 2 3 1 3 4 1 -1 -2 -1 0 0 6 4 5
-5 -6 -4 -4 -4 -4 -4 -4 -5 -5 -4 -0 -1 -2 1 -1 -0 -0 -2 -2 -3 -2 1 2 4 3 3 4 5 5 3 1 -0 1 3 3 5 6 5 3 3 1 1 0 2 3 5
-5 -5 -4 -6 -4 -4 -4 -4 -5 -4 -4 -0 -2 -1 0 1 0 -2 -4 -4 -5 -7 -4 -4 -2 -2 -0 3 4 6 5 3 3 3 2 3 6 6 6 5 3 5 4 2 3 6 5
-6 -5 -5 -3 -6 -3 -4 -4 -4 -4 -4 -0 -2 -1 -2 1 1 -0 -2 -2 -2 -7 -4 -6 -4 -4 -5 -6 -5 1 2 1 0 1 3 3 5 5 5 5 3 4 4 4 4 4 6
-6 -6 -6 -4 -7 -4 -3 -3 -4 -4 -4 -0 -1 -1 -1 -1 -2 1 -1 -1 -3 -3 -3 -4 -3 -3 -2 -1 -3 -1 -2 -2 -2 -1 1 4 7 6 6 3 5 6 4 3 3 3 4
-4 -4 -5 -4 -7 -4 -3 -3 -4 -4 -3 -0 -1 -2 -2 -2 -1 0 -1 -3 -3 -2 -2 -3 -3 -1 -1 -2 -3 -2 -1 -1 -1 -0 -1 1 5 7 8 6 6 9 8 5 4 3 3
-5 -4 -4 -4 -9 -4 -3 -3 -4 -4 -3 -1 -2 -2 -1 -1 -1 -2 -3 -3 -3 -3 -2 -3 -3 -2 -2 -2 -2 -1 -2 -2 -1 -0 -0 -0 0 4 7 7 9 6 3 4 5 5 4
-5 -5 -8 -12 -12 -4 -3 -3 -4 -4 -3 -1 -1 -1 -1 -1 -2 -3 -3 -3 -3 -3 -3 -2 -2 -2 -2 -1 0 -2 -3 -3 -5 -2 -1 0 -1 1 6 8 7 5 3 4 4 4 2
-5 -5 -7 -15 -10 -4 -3 -4 -4 -4 -3 -1 -1 -2 -2 -1 -2 -2 -2 -2 -1 -2 -1 -2 -4 -4 -2 -1 0 0 -1 -5 -5 -5 -3 -1 -1 1 3 7 8 3 2 1 3 6 1
-4 -6 -12 -17 -8 -4 -3 -3 -4 -4 -4 -2 -2 -2 -1 -1 -2 -2 -2 -2 -3 -3 -2 -2 -3 -3 -2 0 1 0 1 -2 -0 -2 -2 -2 0 2 2 3 3 3 3 3 7 6 3
-4 -6 -17 -11 -5 -3 -3 -3 -4 -5 -4 -2 -2 -2 -2 -1 -1 -2 -2 -2 -2 -1 -1 -2 -2 -2 -1 0 -0 -0 -0 -2 -0 -0 0 0 1 2 3 5 5 -1 2 5 3 1 3
-5 -6 -7 -5 -3 -3 -2 -2 -3 -6 -5 -1 -1 -2 -1 -1 -1 -2 -2 -2 -2 -2 -2 -2 -3 -4 -3 0 1 1 3 1 1 4 -0 3 1 3 1 2 0 0 1 0 2 2 1

GFSGBSN_850_dewp_297.txt.gz
Dewpoint
7 7 8 8 7 7 7 7 8 7 6 4 -0 -2 -3 -3 -4 -5 -5 -6 -7 -9 -8 -1 -0 -1 -2 -3 -10 -9 -14 -9 -10 -9 -11 -11 -12 -12 -13 -14 -14 -13 -13 -13 -13 -9 -4
4 5 6 6 6 6 7 7 7 6 6 6 6 4 1 -3 -4 -6 -7 -8 -9 -10 -11 -7 -2 -1 1 -1 -3 -5 -4 -7 -10 -10 -11 -10 -9 -11 -12 -12 -13 -10 -13 -14 -14 -13 -2
-3 -4 -1 2 3 4 5 6 5 5 4 5 4 4 6 6 3 -1 -6 -9 -10 -8 -6 -4 -2 -2 2 -1 -3 -3 -3 -7 -7 -9 -11 -9 -9 -9 -8 -11 -9 -12 -12 -15 -13 -10 -3
-1 -1 -5 -8 -7 -3 -1 -1 -0 -1 0 1 -0 -0 2 2 5 5 4 2 -3 0 2 -1 -2 -2 1 -1 -3 -2 -1 -7 -4 -8 -9 -8 -9 -8 -9 -8 -11 -11 -12 -11 -11 -5 0
-0 0 -0 -2 -8 -11 -11 -9 -7 -6 -5 -6 -8 -8 -6 -6 -2 1 3 2 3 2 1 -2 -1 5 -1 -1 -3 -1 -1 -3 -6 -8 -8 -8 -8 -8 -7 -7 -8 -9 -8 -10 -10 -5 -2
-7 -3 -2 -4 -6 -8 -11 -13 -13 -13 -13 -12 -12 -13 -15 -14 -13 -10 -8 -6 -4 -4 -3 -4 0 2 0 -2 0 0 -2 -2 -3 -5 -6 -6 -7 -6 -5 -5 -2 -4 -7 -8 -7 -4 -1
-4 -8 -6 -7 -8 -8 -8 -11 -13 -14 -14 -15 -15 -16 -19 -22 -20 -17 -15 -9 0 1 4 -1 -2 -0 -2 -3 -3 -5 1 1 -1 -5 -4 -4 -4 -2 -3 -4 -5 -6 -6 -6 -7 -9 -8
-2 -4 -7 -7 -5 -8 -10 -9 -11 -13 -15 -16 -17 -18 -19 -22 -26 -20 -2 5 8 7 7 1 -1 -1 -0 0 -3 -2 -1 -0 -2 -3 -4 -3 -3 -4 -5 -5 -5 -5 -3 -3 -5 -8 -6
-1 -2 -3 -8 -10 -4 -8 -9 -10 -11 -14 -16 -17 -18 -20 -23 -24 -5 6 8 8 8 8 -2 -0 -1 -0 1 -3 -5 1 -2 -3 -4 -5 -4 -4 -6 -4 -4 -3 -3 -2 -3 -3 -5 -6
-3 -2 -4 -5 -7 -9 -5 -7 -8 -9 -11 -13 -15 -17 -20 -24 -5 4 7 6 7 7 4 -6 -3 0 2 3 1 -0 1 -1 -3 -4 -5 -4 -5 -3 -3 -3 -4 -3 -6 -5 -5 -4 -3
-5 -4 -5 -5 -7 -6 -6 -4 -6 -6 -10 -12 -13 -15 -18 -17 -7 6 8 4 5 9 -5 -11 -2 2 1 1 -3 -0 2 1 -1 -1 -1 -2 -3 -3 -3 -5 -5 -5 -4 -4 -4 -2 -2
-5 -3 -4 -5 -6 -7 -7 -4 -5 -6 -7 -9 -12 -13 -15 -3 -4 5 6 5 9 5 -4 -7 -2 -1 0 0 -3 0 1 1 -0 -3 -2 -4 -4 -5 -6 -5 -5 -6 -4 -3 -3 -2 -0
-5 -6 -5 -5 -5 -8 -7 -7 -4 -7 -7 -9 -10 -12 -14 -14 -1 2 6 8 4 -2 -15 -10 -4 -2 -3 -2 -3 -2 0 -1 -3 -1 -0 -2 -4 -5 -3 -4 -4 -3 -1 -1 -3 -1 -1
-3 -4 -4 -4 -5 -7 -7 -8 -6 -7 -7 -7 -8 -11 -14 -3 -3 -10 4 7 2 -10 -12 -8 -7 -4 -3 -3 -3 -3 -3 -4 -6 -6 -10 -11 -7 -4 -6 -4 -5 -3 -3 -0 0 -3 -4
-3 -4 -4 -4 -4 -5 -5 -6 -7 -6 -7 -7 -7 -2 -1 -2 -11 -5 5 7 -3 -8 -14 -15 -7 -3 -4 -5 -5 -5 -6 -11 -11 -5 -7 -11 -10 -7 -5 -6 -6 -4 -1 -4 -0 -2 -1
-4 -5 -4 -4 -6 -4 -6 -5 -5 -6 -7 -6 -1 -1 -4 -2 -14 1 6 4 -2 -3 -1 -3 -4 -8 -10 -7 -6 -8 -8 -8 -8 -5 -7 -8 -4 -6 -6 -5 -5 -4 -6 0 -0 4 2
-6 -6 -6 -6 -5 -6 -5 -6 -5 -4 -6 -6 -1 -3 1 -9 -12 -1 4 3 -2 -1 0 -1 -4 -9 -11 -11 -11 -5 -8 -9 -8 -1 -3 -6 -2 -5 -5 -2 -4 -5 -2 -2 -2 -1 2
-7 -7 -6 -7 -7 -6 -6 -6 -5 -4 -6 -6 -1 -3 1 -8 -4 -7 -2 -2 -1 -0 0 1 1 1 -4 -7 -7 -7 -7 -6 0 -0 -2 2 3 1 -4 -9 -10 -6 -4 -2 3 3 2
-8 -7 -7 -7 -7 -8 -6 -5 -5 -4 -5 -0 -1 -4 1 -4 -4 -7 -8 -3 -3 1 -1 -0 1 2 2 1 1 -2 -7 0 1 2 4 3 1 -2 -3 -2 -4 -3 -3 -2 -2 -1 2
-7 -8 -7 -7 -8 -9 -9 -6 -5 -4 -4 -2 -0 -1 -4 -2 -5 -4 -5 -5 -3 -1 -2 -1 -0 1 1 2 2 1 -1 -0 2 0 -4 1 3 1 1 -4 -8 -4 -1 -1 0 4 4
-8 -10 -8 -8 -8 -8 -8 -9 -6 -4 -3 -2 -0 -1 -4 -1 -4 -5 -4 -4 -7 -5 -6 -7 -4 -2 -1 1 -0 0 -1 -1 -2 -5 -6 -1 4 1 -2 -5 -5 -5 -4 -2 -0 1 4
-11 -9 -9 -8 -7 -8 -9 -9 -7 -4 -3 -1 -0 -2 -3 -4 -5 -4 -4 -3 -5 -8 -6 -6 -6 -10 -10 -6 -5 -6 -8 -6 -5 -6 -6 -6 0 -2 1 -3 -3 -2 -3 -3 -3 -4 -4
-11 -14 -13 -10 -8 -7 -7 -7 -8 -4 -2 -1 -1 -1 0 -2 -3 -5 -5 -4 -5 -7 -7 -7 -7 -7 -7 -8 -7 -6 -5 -4 -4 -3 -4 -4 -2 0 2 -3 -5 -1 -2 -4 -5 -6 -6
-6 -14 -17 -12 -6 -7 -6 -6 -6 -4 -3 -1 -1 -0 -0 0 -4 -3 -6 -8 -8 -7 -5 -7 -6 -6 -6 -6 -6 -6 -5 -5 -5 -5 -5 -2 -3 -2 1 -4 0 -6 -10 -10 -8 -8 -9
-6 -7 -8 -11 -7 -6 -5 -6 -5 -6 -4 -2 -1 -0 0 0 -4 -4 -5 -5 -6 -8 -7 -7 -7 -7 -6 -6 -4 -4 -6 -6 -6 -6 -6 -5 -3 0 2 -1 -6 -9 -12 -12 -12 -11 -13
-7 -6 -7 -7 -10 -7 -6 -6 -8 -7 -7 -3 -2 -1 -0 0 -3 -5 -4 -6 -4 -4 -4 -5 -6 -5 -6 -5 -3 -0 -4 -9 -10 -10 -10 -7 -5 0 -0 1 -2 -7 -12 -13 -11 -5 -11
-8 -7 -7 -7 -7 -9 -7 -6 -8 -8 -10 -4 -2 -1 -1 -0 -1 -3 -4 -5 -5 -4 -2 -3 -3 -5 -4 -0 1 -1 -2 -7 -5 -7 -8 -6 -1 2 3 4 -0 -6 -8 -9 -1 -3 -9
-8 -7 -8 -8 -7 -9 -6 -7 -5 -6 -11 -5 -2 -1 -1 -0 -1 -2 -3 -3 -4 -3 -2 -5 -3 -3 -3 1 -1 -2 -3 -6 -6 -7 -6 -5 -2 2 2 3 4 -6 -6 -3 -4 -7 -6
-8 -8 -9 -9 -9 -7 -7 -7 -6 -7 -13 -4 -1 -1 -1 -0 -1 -1 -2 -3 -4 -4 -4 -5 -3 -5 -2 -1 -1 -2 -1 -2 -3 1 -7 -3 -5 -1 -3 -1 -4 -6 -8 -5 -3 -4 -4